Location: Jefferson
(30.9666°N, 81.7901°W)
Time: 06:35:09
(UTC+00:00)

ARIANE 6 FM1 Upper Stage - Pass Details

Date: 22 September 2024
Orbit: 563 x 595 km, 62.0° (Epoch: 12 October)

Event Time Altitude Azimuth Distance (km) Brightness Sun altitude
Exits shadow 09:13:42 24° 358° (N) 1,245 4.5 -26.6°
Maximum altitude 09:15:53 43° 56° (NE) 844 3.9 -26.2°
Drops below altitude 10° 09:20:02 10° 128° (SE) 1,922 5.8 -25.3°
Sets 09:22:22 0° 135° (SE) 2,819 6.6 -24.8°
